Tillbaka till svenska Fidonet
English   Information   Debug  
FILM   0/18
FNEWS_PUBLISH   4569
FN_SYSOP   41808
FN_SYSOP_OLD1   71952
FTP_FIDO   0/2
FTSC_PUBLIC   0/13887
FUNNY   0/4886
GENEALOGY.EUR   0/71
GET_INFO   105
GOLDED   0/408
HAM   0/16132
HOLYSMOKE   0/6791
HOT_SITES   0/1
HTMLEDIT   0/71
HUB203   466
HUB_100   264
HUB_400   39
HUMOR   0/29
IC   0/2851
INTERNET   0/424
INTERUSER   0/3
IP_CONNECT   719
JAMNNTPD   0/233
JAMTLAND   0/47
KATTY_KORNER   0/41
LAN   0/16
LINUX-USER   0/19
LINUXHELP   0/1155
LINUX   0/22169
LINUX_BBS   0/957
mail   18.68
mail_fore_ok   249
MENSA   0/341
MODERATOR   0/102
MONTE   0/992
MOSCOW_OKLAHOMA   0/1245
MUFFIN   0/783
MUSIC   0/321
N203_STAT   938
N203_SYSCHAT   313
NET203   321
NET204   69
NET_DEV   0/10
NORD.ADMIN   0/101
NORD.CHAT   0/2572
NORD.FIDONET   189
NORD.HARDWARE   0/28
NORD.KULTUR   0/114
NORD.PROG   0/32
NORD.SOFTWARE   0/88
NORD.TEKNIK   0/58
NORD   0/453
OCCULT_CHAT   0/93
OS2BBS   0/787
OS2DOSBBS   0/580
OS2HW   0/42
OS2INET   0/37
OS2LAN   0/134
OS2PROG   0/36
OS2REXX   0/113
OS2USER-L   207
OS2   0/4804
OSDEBATE   0/18996
PASCAL   0/490
PERL   0/457
PHP   0/45
POINTS   0/405
POLITICS   0/29554
POL_INC   0/14731
PSION   103
R20_ADMIN   1129
R20_AMATORRADIO   0/2
R20_BEST_OF_FIDONET   14
R20_CHAT   0/893
R20_DEPP   0/3
R20_DEV   399
R20_ECHO2   1493
R20_ECHOPRES   0/35
R20_ESTAT   0/719
R20_FIDONETPROG...
...RAM.MYPOINT
  0/2
R20_FIDONETPROGRAM   0/22
R20_FIDONET   0/248
R20_FILEFIND   0/24
R20_FILEFOUND   0/22
R20_HIFI   0/3
R20_INFO2   3383
R20_INTERNET   0/12940
R20_INTRESSE   0/60
R20_INTR_KOM   0/99
R20_KANDIDAT.CHAT   42
R20_KANDIDAT   28
R20_KOM_DEV   112
R20_KONTROLL   0/13360
R20_KORSET   0/18
R20_LOKALTRAFIK   0/24
R20_MODERATOR   0/1852
R20_NC   76
R20_NET200   245
R20_NETWORK.OTH...
...ERNETS
  0/13
R20_OPERATIVSYS...
...TEM.LINUX
  0/44
R20_PROGRAMVAROR   0/1
R20_REC2NEC   534
R20_SFOSM   0/341
R20_SF   0/108
R20_SPRAK.ENGLISH   0/1
R20_SQUISH   107
R20_TEST   2
R20_WORST_OF_FIDONET   20
RAR   0/9
RA_MULTI   106
RA_UTIL   0/162
REGCON.EUR   0/2066
REGCON   0/13
SCIENCE   0/1206
SF   0/239
SHAREWARE_SUPPORT   0/5146
SHAREWRE   0/14
SIMPSONS   0/169
STATS_OLD1   0/2539.065
STATS_OLD2   0/2530
STATS_OLD3   0/2395.095
STATS_OLD4   0/1692.25
SURVIVOR   0/495
SYSOPS_CORNER   0/3
SYSOP   0/84
TAGLINES   0/112
TEAMOS2   0/4530
TECH   0/2617
TEST.444   0/105
TRAPDOOR   0/19
TREK   0/755
TUB   0/290
UFO   0/40
UNIX   0/1316
USA_EURLINK   0/102
USR_MODEMS   0/1
VATICAN   0/2740
VIETNAM_VETS   0/14
VIRUS   0/378
VIRUS_INFO   0/201
VISUAL_BASIC   0/473
WHITEHOUSE   0/5187
WIN2000   0/101
WIN32   0/30
WIN95   0/4291
WIN95_OLD1   0/70272
WINDOWS   0/1517
WWB_SYSOP   0/419
WWB_TECH   0/810
ZCC-PUBLIC   0/1
ZEC   4

 
4DOS   0/134
ABORTION   0/7
ALASKA_CHAT   0/506
ALLFIX_FILE   0/1313
ALLFIX_FILE_OLD1   0/7997
ALT_DOS   0/152
AMATEUR_RADIO   0/1039
AMIGASALE   0/14
AMIGA   0/331
AMIGA_INT   0/1
AMIGA_PROG   0/20
AMIGA_SYSOP   0/26
ANIME   0/15
ARGUS   0/924
ASCII_ART   0/340
ASIAN_LINK   0/651
ASTRONOMY   0/417
AUDIO   0/92
AUTOMOBILE_RACING   0/105
BABYLON5   0/17862
BAG   135
BATPOWER   0/361
BBBS.ENGLISH   0/382
BBSLAW   0/109
BBS_ADS   0/5290
BBS_INTERNET   0/507
BIBLE   0/3563
BINKD   0/1119
BINKLEY   0/215
BLUEWAVE   0/2173
CABLE_MODEMS   0/25
CBM   0/46
CDRECORD   0/66
CDROM   0/20
CLASSIC_COMPUTER   0/378
COMICS   0/15
CONSPRCY   0/899
COOKING   36244
COOKING_OLD1   0/24719
COOKING_OLD2   0/40862
COOKING_OLD3   0/37489
COOKING_OLD4   0/35496
COOKING_OLD5   9370
C_ECHO   0/189
C_PLUSPLUS   0/31
DIRTY_DOZEN   0/201
DOORGAMES   0/2115
DOS_INTERNET   0/196
duplikat   6002
ECHOLIST   0/18295
EC_SUPPORT   0/318
ELECTRONICS   0/359
ELEKTRONIK.GER   1534
ENET.LINGUISTIC   0/13
ENET.POLITICS   0/4
ENET.SOFT   0/11701
ENET.SYSOP   34077
ENET.TALKS   0/32
ENGLISH_TUTOR   0/2000
EVOLUTION   0/1335
FDECHO   0/217
FDN_ANNOUNCE   0/7068
FIDONEWS   24344
FIDONEWS_OLD1   0/49742
FIDONEWS_OLD2   32374/35949
FIDONEWS_OLD3   0/30874
FIDONEWS_OLD4   0/37224
FIDO_SYSOP   12854
FIDO_UTIL   0/180
FILEFIND   0/209
FILEGATE   0/212
Möte HAM, 16132 texter
 lista första sista föregående nästa
Text 5058, 921 rader
Skriven 2012-02-03 22:01:36 av Amsat List (1:323/120.0)
Ärende: [keps] orb12034.amsa
============================
[keps] orb12034.amsa

Sender: keps-bounces@amsat.org
Return-Path: <keps-bounces@amsat.org>
X-Rcpt: craig.healy@chowda.com
X-UIDL: 1328323153.2128

SB KEPS @ AMSAT  $ORB12034.O
Orbital Elements  12034.OSCAR

HR AMSAT ORBITAL ELEMENTS FOR OSCAR SATELLITES
FROM WA5QGD FORT WORTH,TX February 3, 2012
Send SUBSCRIBE KEPS/UNSUBSCRIBE KEPS to majordomo@amsat.org only
BID: ORB12034.O
TO ALL RADIO AMATEURS BT

Satellite: AO-07
Catalog number: 07530
Epoch time:      12034.59309480
Element set:     297
Inclination:      101.3985 deg
RA of node:       037.0263 deg
Eccentricity:    0.0011764
Arg of perigee:   185.8886 deg
Mean anomaly:     174.2043 deg
Mean motion:   12.53587365 rev/day
Decay rate:       -2.7e-07 rev/day^2
Epoch rev:           70318
Checksum:              305

Satellite: FO-29
Catalog number: 24278
Epoch time:      12034.37430729
Element set:     768
Inclination:      098.5753 deg
RA of node:       152.7352 deg
Eccentricity:    0.0350983
Arg of perigee:   018.4819 deg
Mean anomaly:     342.8703 deg
Mean motion:   13.52976518 rev/day
Decay rate:       -4.8e-07 rev/day^2
Epoch rev:           76372
Checksum:              344

Satellite: SO-33
Catalog number: 25509
Epoch time:      12033.36417406
Element set:    0159
Inclination:      031.4319 deg
RA of node:       022.2499 deg
Eccentricity:    0.0352394
Arg of perigee:   094.9865 deg
Mean anomaly:     269.1074 deg
Mean motion:   14.28663275 rev/day
Decay rate:       1.93e-06 rev/day^2
Epoch rev:           69321
Checksum:              315

Satellite: RS-22
Catalog number: 27939
Epoch time:      12034.69181737
Element set:      50
Inclination:      097.8223 deg
RA of node:       242.3227 deg
Eccentricity:    0.0013152
Arg of perigee:   336.2266 deg
Mean anomaly:     023.8332 deg
Mean motion:   14.63888690 rev/day
Decay rate:       4.02e-06 rev/day^2
Epoch rev:           44620
Checksum:              290

Satellite: VO-52
Catalog number: 28650
Epoch time:      12033.68799199
Element set:    0016
Inclination:      097.6152 deg
RA of node:       071.1912 deg
Eccentricity:    0.0027474
Arg of perigee:   124.4088 deg
Mean anomaly:     235.9703 deg
Mean motion:   14.82653690 rev/day
Decay rate:      1.009e-05 rev/day^2
Epoch rev:           36489
Checksum:              326

Satellite: HO-68
Catalog number: 36122
Epoch time:      12034.68224572
Element set:     166
Inclination:      100.3817 deg
RA of node:       096.6465 deg
Eccentricity:    0.0007729
Arg of perigee:   058.5953 deg
Mean anomaly:     301.5920 deg
Mean motion:   13.16292831 rev/day
Decay rate:       -4.4e-07 rev/day^2
Epoch rev:           10269
Checksum:              297

/EX
SB KEPS @ AMSAT  $ORB12034.D
Orbital Elements  12034.MICROS

HR AMSAT ORBITAL ELEMENTS FOR THE MICROSATS
FROM WA5QGD FORT WORTH,TX February 3, 2012
Send SUBSCRIBE KEPS/UNSUBSCRIBE KEPS to majordomo@amsat.org only
BID: ORB12034.D
TO ALL RADIO AMATEURS BT

Satellite: UO-11
Catalog number: 14781
Epoch time:      12033.87042278
Element set:    0784
Inclination:      097.9748 deg
RA of node:       094.4685 deg
Eccentricity:    0.0010037
Arg of perigee:   109.5607 deg
Mean anomaly:     250.6690 deg
Mean motion:   14.80298586 rev/day
Decay rate:       4.78e-06 rev/day^2
Epoch rev:           49991
Checksum:              348

Satellite: AO-16
Catalog number: 20439
Epoch time:      12034.86565325
Element set:     388
Inclination:      098.4142 deg
RA of node:       342.1084 deg
Eccentricity:    0.0010340
Arg of perigee:   193.6766 deg
Mean anomaly:     166.4137 deg
Mean motion:   14.32014091 rev/day
Decay rate:       1.31e-06 rev/day^2
Epoch rev:           15077
Checksum:              278

Satellite: LO-19
Catalog number: 20442
Epoch time:      12033.86124380
Element set:    0325
Inclination:      098.3796 deg
RA of node:       344.6230 deg
Eccentricity:    0.0011406
Arg of perigee:   188.8561 deg
Mean anomaly:     171.2427 deg
Mean motion:   14.32234808 rev/day
Decay rate:       1.18e-06 rev/day^2
Epoch rev:           15081
Checksum:              280

Satellite: AO-27
Catalog number: 22825
Epoch time:      12034.85140241
Element set:      23
Inclination:      098.5602 deg
RA of node:       339.8595 deg
Eccentricity:    0.0008004
Arg of perigee:   320.1085 deg
Mean anomaly:     039.9503 deg
Mean motion:   14.29427050 rev/day
Decay rate:       1.25e-06 rev/day^2
Epoch rev:           95728
Checksum:              283

Satellite: IO-26
Catalog number: 22826
Epoch time:      12034.87783715
Element set:     771
Inclination:      098.5545 deg
RA of node:       340.2922 deg
Eccentricity:    0.0008576
Arg of perigee:   313.9435 deg
Mean anomaly:     046.1036 deg
Mean motion:   14.29697382 rev/day
Decay rate:       1.17e-06 rev/day^2
Epoch rev:           95741
Checksum:              327

Satellite: GO-32
Catalog number: 25397
Epoch time:      12034.34935544
Element set:     694
Inclination:      098.3495 deg
RA of node:       019.7993 deg
Eccentricity:    0.0001148
Arg of perigee:   004.4524 deg
Mean anomaly:     355.6669 deg
Mean motion:   14.23255811 rev/day
Decay rate:       1.00e-06 rev/day^2
Epoch rev:           70484
Checksum:              312

Satellite: NO-44
Catalog number: 26931
Epoch time:      12033.68458682
Element set:    0963
Inclination:      067.0525 deg
RA of node:       109.5636 deg
Eccentricity:    0.0005932
Arg of perigee:   279.0180 deg
Mean anomaly:     081.0241 deg
Mean motion:   14.29756454 rev/day
Decay rate:       -5.5e-07 rev/day^2
Epoch rev:           53987
Checksum:              321

